Home   Weather   Bremerhaven   Past weeks

Flag for Germany Past Weather in Bremerhaven, Bremen, Germany — Yesterday and Last 2 Weeks

Now
25 °F

Fog.


Feels Like: 25 °F
Forecast: 29 / 37 °F
Wind: 1 mph from South

Location: Nordholz

Current Time: Dec 5, 2016 at 9:37:11 am

Latest Report: Dec 5, 2016 at 8:20 am


Visibility: 4 mi

Pressure: 30.33 "Hg

Humidity: 93%

Dew Point: 23 °F

Location of BremerhavenLocation

Past Weather in Bremerhaven — Graph

°F

Bremerhaven Temperature Yesterday

Maximum temperature yesterday: 37 °F (at 2:20 pm)
Minimum temperature yesterday: 27 °F (at 12:20 am)
Average temperature yesterday: 31 °F

High & Low Weather Summary for the Past Weeks

 TemperatureHumidityPressure
High55 °F (Nov 21, 11:20 am)100% (Nov 21, 8:20 am)30.57 "Hg (Nov 21, 8:20 am)
Low23 °F (Dec 5, 2:20 am)53% (Dec 2, 12:20 pm)29.21 "Hg (Nov 20, 2:20 pm)
Average40 °F86%30.13 "Hg
* Reported Nov 20 8:20 am — Dec 5 8:20 am, Bremerhaven, Weather by CustomWeather, © 2016

Note: Actual official high and low records may vary slightly from our data, if they occured in-between our weather recording intervals... More about our weather records

Advertising

Bremerhaven Weather History for the Previous 24 Hours

Scroll right to see more
 ConditionsComfort  
Time TempWeatherWind HumidityBarometerVisibility
8:20 am
Mon, Dec 5
25 °FFog.1 mph93%30.33 "Hg4 mi
7:20 am27 °FFog.3 mph86%30.33 "HgN/A
6:20 am23 °FCold.3 mph93%30.33 "HgN/A
5:20 am30 °FChilly.5 mph93%30.36 "HgN/A
4:20 am28 °FFog.5 mph93%30.36 "HgN/A
3:20 am23 °FIce fog.2 mph93%30.36 "Hg0 mi
2:20 am23 °FIce fog.2 mph100%30.39 "Hg0 mi
1:20 am27 °FIce fog.2 mph93%30.39 "Hg1 mi
12:20 am25 °FIce fog.2 mph93%30.39 "Hg3 mi
11:20 pm
Sun, Dec 4
30 °FLight fog.5 mph93%30.39 "Hg4 mi
10:20 pm28 °FIce fog.3 mph100%30.39 "Hg3 mi
9:20 pm30 °FFog.2 mph86%30.42 "Hg6 mi
8:20 pm34 °FPassing clouds.2 mph81%30.42 "HgN/A
7:20 pm34 °FPassing clouds.6 mph87%30.42 "HgN/A
6:20 pm34 °FPassing clouds.6 mph87%30.42 "Hg6 mi
5:20 pm36 °FPassing clouds.3 mph87%30.42 "Hg4 mi
4:20 pm36 °FPassing clouds.5 mph93%30.42 "Hg4 mi
3:20 pm37 °FPartly sunny.5 mph87%30.39 "Hg4 mi
2:20 pm37 °FPartly sunny.5 mph87%30.42 "Hg4 mi
1:20 pm36 °FPartly sunny.3 mph87%30.42 "Hg4 mi
12:20 pm34 °FPartly sunny.5 mph100%30.42 "Hg4 mi
11:20 am32 °FPartly sunny.5 mph93%30.42 "Hg4 mi
10:20 am32 °FPartly sunny.7 mph93%30.42 "Hg6 mi
9:20 am30 °FPartly sunny.3 mph100%30.42 "Hg5 mi
Weather by CustomWeather, © 2016

See weather overviewHow to use our weather pages